Regional Weather Roundup
Issued by NWS

Home | Current Version | Previous Version | Text Only | Print | Product List | Glossary On
Versions: 1 2 3 4 5 6 7 8 9 10 11 12 13 14 15 16 17 18 19 20 21 22 23 24 25 26 27 28 29 30 31 32 33 34 35 36 37 38 39 40 41 42 43 44 45 46 47 48 49 50
000
ASUS45 KSLC 260810
RWRUT

UTAH REGIONAL WEATHER ROUNDUP
NATIONAL WEATHER SERVICE SALT LAKE CITY UT
200 AM MDT SUN MAR 26 2017

UTZ001>011-023>025-260900-

NORTHERN UTAH

CITY           SKY/WX    TMP DP  RH WIND       PRES   REMARKS
BRIGHAM CITY     N/A     40  37  90 CALM      30.04S
HILL AFB       CLEAR     37  33  87 SE7       30.02S WCI  31
LOGAN          CLEAR     38  34  85 S3        30.02S
OGDEN          CLEAR     35  35 100 SE6       30.02R WCI  30
SALT LAKE CITY MOCLDY    38  36  92 E3        30.02S
WENDOVER       PTCLDY    40  29  64 CALM      30.02F
HEBER CITY     CLEAR     34  30  86 CALM      30.00S

$$

UTZ011>015-024>027-260900-

CENTRAL/NORTHEAST UTAH

CITY           SKY/WX    TMP DP  RH WIND       PRES   REMARKS
PROVO AIRPORT  MOCLDY    41  37  86 CALM      30.04S
MOAB/CANYONLAN CLOUDY    45  40  82 W13       29.88R
DELTA          CLEAR     34  34 100 S7        30.04S WCI  28
PRICE          CLEAR     39  29  67 W9        29.93S WCI  33
ROOSEVELT      CLOUDY    41  37  87 CALM      29.94R
VERNAL         CLOUDY    44  30  57 NE8       29.91R

$$

UTZ013>016-019>022-027-260900-

SOUTHERN UTAH

CITY           SKY/WX    TMP DP  RH WIND       PRES   REMARKS
BRYCE CANYON   CLEAR     29  26  89 NW12      30.00F WCI  19
CEDAR CITY     CLEAR     33  31  92 CALM      30.03S
MILFORD        CLEAR     35  32  88 CALM      30.04S
ST GEORGE      SUNNY     45  37  73 CALM      30.03R
HANKSVILLE     CLOUDY    45  32  61 W7        29.95R
BLANDING       CLOUDY    39  35  87 NE3       30.01S

$$

REGIONAL REPORTS     COLORADO/ARIZONA

CITY           SKY/WX    TMP DP  RH WIND       PRES   REMARKS
CRAIG, CO      LGT RAIN  42  35  76 W9        29.91S
GRAND JUNCTION LGT RAIN  47  37  68 CALM      29.87R
RIFLE, CO      CLOUDY    41  35  79 E6        29.89S
MONTROSE, CO   LGT RAIN  42  40  92 E7        29.92S
CORTEZ, CO     CLOUDY    38  37  97 CALM      29.94F
COLORADO CITY    N/A     37  34  87 CALM      30.05R
PAGE, AZ       MOCLDY    50  37  61 W5        29.95R
GRAND CANYON   CLEAR     29  28  96 W3        30.04R
KINGMAN, AZ    CLEAR     44  31  60 SE6       30.00R
FLAGSTAFF, AZ  CLEAR     36  26  67 W8        30.02F WCI  30

$$

REGIONAL REPORTS    NEVADA/IDAHO/WYOMING

CITY           SKY/WX    TMP DP  RH WIND       PRES   REMARKS
LAS VEGAS, NV  PTCLDY    59  35  40 N7        29.97S
ELY, NY        CLEAR     27  25  92 S9        30.05F WCI  18
ELKO, NV       PTCLDY    33  26  75 CALM      30.02F
POCATELLO, ID  CLEAR     38  28  67 SW12      30.01S WCI  30
BURLEY, ID     CLEAR     34  27  75 SW10      30.00F WCI  26
FORT BRIDGER,    N/A     32  31  96 W9        30.03S WCI  24
EVANSTON, WY   CLEAR     30  26  85 CALM      30.01S
ROCK SPRINGS,  CLOUDY    37  33  85 W7        29.96R WCI  32
KEMMERER, WY     N/A     28  27  93 NW8       29.99S WCI  20

$$



USA.gov is the U.S. government's official web portal to all federal, state and local government web resources and services.